FW0699 Weather Reports


Display with metric or nautical units.
time (UTC)temp
F
wind
direction
speed
MPH
gust
MPH
rain 1hr
in
rain 24hr
in
rain mn
in
humidity
%
barometer
mb
20260510044509 50 125 0.0 0.0 0.00 0.00 0.00 91 1011.3
20260510044006 50 125 0.0 0.0 0.00 0.00 0.00 91 1011.4
20260510043509 50 125 0.0 0.0 0.00 0.00 0.00 91 1011.4
20260510043010 50 125 0.0 0.0 0.00 0.00 0.00 90 1011.4
20260510042503 50 125 0.0 0.0 0.00 0.00 0.00 90 1011.4
20260510042005 50 125 0.0 0.0 0.00 0.00 0.00 90 1011.4
20260510041512 50 125 0.0 0.0 0.00 0.00 0.00 89 1011.4
20260510041008 50 125 0.0 0.0 0.00 0.00 0.00 90 1011.4
20260510040506 51 125 0.0 0.0 0.00 0.00 0.00 89 1011.5
20260510040020 51 125 0.0 0.0 0.00 0.00 0.00 89 1011.4
20260510035505 51 125 0.0 0.0 0.00 0.00 0.00 90 1011.5
20260510035003 51 125 0.0 0.0 0.00 0.00 0.00 89 1011.5
20260510034518 51 125 0.0 0.0 0.00 0.00 0.00 89 1011.5
20260510034009 51 125 0.0 0.0 0.00 0.00 0.00 89 1011.5
20260510033506 51 125 0.0 0.0 0.00 0.00 0.00 89 1011.5
20260510033011 51 125 0.0 0.0 0.00 0.00 0.00 89 1011.5
20260510032508 52 125 0.0 0.0 0.00 0.00 0.00 89 1011.5
20260510032008 52 125 0.0 0.0 0.00 0.00 0.00 89 1011.4
20260510031508 52 125 0.0 0.0 0.00 0.00 0.00 88 1011.4
20260510031008 52 125 0.0 0.0 0.00 0.00 0.00 89 1011.3
20260510030507 52 125 0.0 0.0 0.00 0.00 0.00 88 1011.4
20260510030033 52 125 0.0 0.0 0.00 0.00 0.00 89 1011.4
20260510025506 52 125 0.0 0.0 0.00 0.00 0.00 88 1011.2
20260510025009 52 125 0.0 0.0 0.00 0.00 0.00 88 1011.2
20260510024525 53 125 0.0 0.0 0.00 0.00 0.00 87 1011.3
20260510024009 53 125 0.0 0.0 0.00 0.00 0.00 87 1011.2
20260510023503 53 125 0.0 0.0 0.00 0.00 0.00 87 1011.2
20260510023013 53 125 0.0 0.0 0.00 0.00 0.00 87 1011.2
20260510022507 53 125 0.0 0.0 0.00 0.00 0.00 87 1011.2
20260510022004 53 125 0.0 0.0 0.00 0.00 0.00 87 1011.1
20260510021522 53 125 0.0 2.0 0.00 0.00 0.00 87 1011.0
20260510021011 54 125 0.0 2.0 0.00 0.00 0.00 86 1010.8
20260510020510 54 125 0.0 0.0 0.00 0.00 0.00 85 1011.0
20260510020014 54 125 0.0 0.0 0.00 0.00 0.00 85 1010.9
20260510015509 54 125 0.0 0.0 0.00 0.00 0.00 85 1010.9
20260510015009 54 125 0.0 0.0 0.00 0.00 0.00 84 1010.9
20260510014510 55 125 0.0 0.0 0.00 0.00 0.00 83 1010.9
20260510014006 55 125 0.0 0.0 0.00 0.00 0.00 83 1010.9
20260510013503 55 125 0.0 0.0 0.00 0.00 0.00 82 1010.8
20260510013015 55 125 0.0 0.0 0.00 0.00 0.00 82 1010.8
20260510012505 56 125 0.0 0.0 0.00 0.00 0.00 82 1010.7
20260510012009 56 125 0.0 0.0 0.00 0.00 0.00 80 1010.6
20260510011521 56 125 0.0 0.0 0.00 0.00 0.00 80 1010.5
20260510011012 57 125 0.0 0.0 0.00 0.00 0.00 80 1010.4
20260510010506 57 125 0.0 0.0 0.00 0.00 0.00 79 1010.2
20260510010023 57 125 0.0 0.0 0.00 0.00 0.00 79 1010.1
20260510005504 58 125 0.0 0.0 0.00 0.00 0.00 78 1010.1
20260510005005 58 125 0.0 0.0 0.00 0.00 0.00 77 1010.1
20260510004503 58 125 0.0 1.0 0.00 0.00 0.00 76 1010.0
20260510004003 59 125 0.0 1.0 0.00 0.00 0.00 76 1009.8
20260510003504 59 125 0.0 1.0 0.00 0.00 0.00 75 1009.9
20260510003023 59 146 0.0 2.0 0.00 0.00 0.00 74 1009.9
20260510002503 60 114 0.0 2.0 0.00 0.00 0.00 74 1009.8
20260510002002 60 149 0.0 2.0 0.00 0.00 0.00 73 1009.8
20260510001504 61 149 0.0 2.0 0.00 0.00 0.00 72 1009.8
20260510001004 61 149 0.0 2.0 0.00 0.00 0.00 72 1009.7
20260510000503 61 149 0.0 2.0 0.00 0.00 0.00 71 1009.8
20260510000006 62 105 0.0 0.0 0.00 0.00 0.00 71 1009.8
20260509235505 62 105 0.0 0.0 0.00 0.00 0.00 71 1009.9
20260509235003 62 105 0.0 0.0 0.00 0.00 0.00 69 1009.8
20260509234512 62 105 0.0 0.0 0.00 0.00 0.00 69 1009.8
20260509234005 63 105 0.0 2.0 0.00 0.00 0.00 69 1009.8
20260509233504 63 101 0.0 3.0 0.00 0.00 0.00 69 1009.7
20260509233003 63 80 1.0 3.0 0.00 0.00 0.00 69 1009.6
20260509232507 63 86 1.0 3.0 0.00 0.00 0.00 68 1009.7
20260509232003 64 110 0.0 3.0 0.00 0.00 0.00 69 1009.6
20260509231505 64 91 0.0 3.0 0.00 0.00 0.00 68 1009.7
20260509231005 64 115 0.0 3.0 0.00 0.00 0.00 67 1009.7
20260509230502 64 37 2.0 3.0 0.00 0.00 0.00 66 1009.7
20260509230011 64 113 0.0 3.0 0.00 0.00 0.00 66 1009.7
20260509225504 64 112 1.0 4.0 0.00 0.00 0.00 66 1009.7
20260509225005 65 65 2.0 4.0 0.00 0.00 0.00 65 1009.6
20260509224515 65 30 2.0 8.0 0.00 0.00 0.00 66 1009.6
20260509224003 65 60 3.0 8.0 0.00 0.00 0.00 64 1009.7
20260509223504 65 88 2.0 6.0 0.00 0.00 0.00 64 1009.8
20260509223004 65 38 2.0 6.0 0.00 0.00 0.00 64 1009.7
20260509222504 66 47 3.0 6.0 0.00 0.00 0.00 64 1009.6
20260509222004 66 55 1.0 6.0 0.00 0.00 0.00 66 1009.6
20260509221511 65 155 1.0 6.0 0.00 0.00 0.00 65 1009.6
20260509221003 65 46 1.0 4.0 0.00 0.00 0.00 65 1009.5
20260509220505 65 117 1.0 7.0 0.00 0.00 0.00 67 1009.6
20260509220004 65 17 2.0 7.0 0.00 0.00 0.00 64 1009.7
20260509215507 64 112 2.0 7.0 0.00 0.00 0.00 65 1009.7
20260509215007 64 32 4.0 6.0 0.00 0.00 0.00 65 1009.7
20260509214504 64 44 2.0 5.0 0.00 0.00 0.00 67 1009.8
20260509214004 63 57 2.0 4.0 0.00 0.00 0.00 68 1009.8
20260509213507 63 46 1.0 5.0 0.00 0.00 0.00 69 1009.8
20260509213005 63 57 1.0 5.0 0.00 0.00 0.00 68 1009.8
20260509212504 63 9 2.0 4.0 0.00 0.00 0.00 67 1009.9
20260509212008 63 37 1.0 4.0 0.00 0.00 0.00 67 1009.9
20260509211508 63 121 2.0 4.0 0.00 0.00 0.00 68 1009.9
20260509211003 62 111 1.0 7.0 0.00 0.00 0.00 69 1009.9
20260509210507 62 99 2.0 7.0 0.00 0.00 0.00 69 1010.0
20260509210016 62 22 3.0 6.0 0.00 0.00 0.00 69 1009.8
20260509205508 62 39 3.0 9.0 0.00 0.00 0.00 68 1009.8
20260509205005 62 57 2.0 9.0 0.00 0.00 0.00 69 1009.9
20260509204514 62 42 2.0 7.0 0.00 0.00 0.00 67 1009.9
20260509204008 62 71 3.0 7.0 0.00 0.00 0.00 66 1009.8
20260509203503 63 30 2.0 6.0 0.00 0.00 0.00 67 1009.9
20260509203004 62 55 4.0 6.0 0.00 0.00 0.00 65 1009.9
20260509202505 62 98 2.0 6.0 0.00 0.00 0.00 66 1009.9
20260509202008 62 76 3.0 6.0 0.00 0.00 0.00 66 1010.0
20260509201508 62 59 3.0 6.0 0.00 0.00 0.00 67 1010.0
20260509201005 62 82 4.0 6.0 0.00 0.00 0.00 67 1010.0
20260509200506 62 57 2.0 5.0 0.00 0.00 0.00 67 1009.9
20260509200020 63 53 3.0 5.0 0.00 0.00 0.00 65 1010.1
20260509195504 63 159 0.0 2.0 0.00 0.00 0.00 66 1010.1
20260509195005 63 85 0.0 2.0 0.00 0.00 0.00 66 1010.1
20260509194525 63 48 1.0 3.0 0.00 0.00 0.00 65 1010.1
20260509194002 63 88 1.0 3.0 0.00 0.00 0.00 66 1010.1
20260509193506 63 72 1.0 3.0 0.00 0.00 0.00 65 1010.1
20260509193008 63 110 2.0 3.0 0.00 0.00 0.00 64 1010.3
20260509192505 63 101 1.0 2.0 0.00 0.00 0.00 66 1010.3
20260509192009 63 65 0.0 6.0 0.00 0.00 0.00 64 1010.4
20260509191517 64 76 2.0 6.0 0.00 0.00 0.00 63 1010.3
20260509191011 64 100 2.0 4.0 0.00 0.00 0.00 63 1010.4
20260509190503 64 132 0.0 4.0 0.00 0.00 0.00 62 1010.6
20260509190011 64 107 1.0 5.0 0.00 0.00 0.00 63 1010.5
20260509185507 64 154 0.0 8.0 0.00 0.00 0.00 63 1010.6
20260509185016 64 61 2.0 8.0 0.00 0.00 0.00 64 1010.5
20260509184512 63 138 1.0 7.0 0.00 0.00 0.00 65 1010.6
20260509184002 63 151 2.0 7.0 0.00 0.00 0.00 64 1010.6
20260509183507 63 40 2.0 7.0 0.00 0.00 0.00 66 1010.7
20260509183014 63 105 2.0 7.0 0.00 0.00 0.00 67 1010.8
20260509182505 62 128 1.0 8.0 0.00 0.00 0.00 67 1011.0
20260509182013 62 78 1.0 8.0 0.00 0.00 0.00 67 1011.0
20260509181517 62 86 2.0 5.0 0.00 0.00 0.00 65 1011.1
20260509181008 61 86 2.0 4.0 0.00 0.00 0.00 67 1011.2
20260509180507 61 57 2.0 3.0 0.00 0.00 0.00 68 1011.2
20260509180023 61 17 0.0 2.0 0.00 0.00 0.00 67 1011.4
20260509175507 60 18 0.0 4.0 0.00 0.00 0.00 67 1011.6
20260509175004 60 23 1.0 4.0 0.00 0.00 0.00 67 1011.7
20260509174518 60 29 1.0 4.0 0.00 0.00 0.00 65 1011.8
20260509174004 60 319 1.0 4.0 0.00 0.00 0.00 64 1011.9
20260509173506 60 352 1.0 3.0 0.00 0.00 0.00 64 1011.7
20260509173014 61 331 2.0 3.0 0.00 0.00 0.00 63 1011.6
20260509172510 61 57 0.0 3.0 0.00 0.00 0.00 65 1011.7
20260509172007 60 15 1.0 4.0 0.00 0.00 0.00 65 1011.7
20260509171512 60 360 2.0 4.0 0.00 0.00 0.00 65 1011.5
20260509171006 60 41 2.0 4.0 0.00 0.00 0.00 66 1011.6
20260509170510 60 352 3.0 4.0 0.00 0.00 0.00 66 1011.8
20260509170026 60 48 1.0 5.0 0.00 0.00 0.00 67 1011.8
20260509165506 60 67 1.0 5.0 0.00 0.00 0.00 64 1011.9
20260509165012 60 42 3.0 5.0 0.00 0.00 0.00 65 1011.9
20260509164509 60 42 2.0 3.0 0.00 0.00 0.00 65 1011.9
20260509164310 60 327 1.0 4.0 0.00 0.00 0.00 63 1011.9
20260509164306 60 325 2.0 4.0 0.00 0.00 0.00 64 1011.8
20260509164303 60 74 3.0 4.0 0.00 0.00 0.00 63 1012.0
20260509164255 60 352 1.0 4.0 0.00 0.00 0.00 62 1012.1
20260509164252 61 360 2.0 5.0 0.00 0.00 0.00 64 1011.9
20260509164249 61 326 2.0 5.0 0.00 0.00 0.00 64 1012.0
20260509164243 60 336 1.0 0.0 0.00 0.00 0.00 61 1011.8
20260509164240 57 196 4.0 11.0 0.00 0.07 0.04 54 1009.7
20260509164235 57 123 0.0 1.0 0.00 0.07 0.04 57 1009.7
20260509164227 58 123 0.0 2.0 0.00 0.07 0.04 55 1009.6
20260509164225 58 123 1.0 2.0 0.00 0.07 0.04 56 1009.5
20260509164220 59 126 0.0 2.0 0.00 0.07 0.04 54 1009.4
20260509164215 60 126 1.0 2.0 0.00 0.07 0.04 52 1009.4
20260509164210 60 115 0.0 0.0 0.00 0.07 0.04 52 1009.2
20260509164207 61 115 0.0 0.0 0.00 0.07 0.04 49 1009.2
20260509164158 61 115 0.0 0.0 0.00 0.07 0.04 47 1009.2
20260509164153 62 115 0.0 0.0 0.00 0.07 0.04 46 1009.0
20260509164149 63 97 0.0 2.0 0.00 0.07 0.04 49 1008.9
20260509164142 63 75 0.0 2.0 0.00 0.07 0.04 47 1008.8
20260509164138 64 75 0.0 1.0 0.00 0.07 0.04 42 1008.8
20260509164134 64 75 0.0 1.0 0.00 0.07 0.04 39 1008.7
20260509164127 64 75 0.0 1.0 0.00 0.07 0.04 39 1008.8
20260509164123 65 75 1.0 2.0 0.00 0.07 0.04 36 1008.8
20260509164116 65 350 1.0 2.0 0.00 0.07 0.04 38 1008.7
20260509164113 65 312 1.0 2.0 0.00 0.07 0.04 35 1008.6
20260509164108 65 98 0.0 5.0 0.00 0.07 0.04 39 1008.6
20260509164106 66 223 2.0 5.0 0.00 0.07 0.04 40 1008.6
20260509164100 66 180 2.0 5.0 0.00 0.07 0.04 38 1008.6
20260509164056 65 171 2.0 4.0 0.00 0.07 0.04 39 1008.6
20260509164053 65 188 0.0 4.0 0.00 0.07 0.04 38 1008.5
20260509164050 65 182 2.0 4.0 0.00 0.07 0.04 38 1008.6
20260509164047 65 48 1.0 6.0 0.00 0.07 0.04 36 1008.6
20260509164042 65 299 3.0 6.0 0.00 0.07 0.04 42 1008.7
20260509164038 65 186 3.0 5.0 0.00 0.07 0.04 37 1008.8
20260509164029 64 54 1.0 3.0 0.00 0.07 0.04 44 1008.8
20260509164027 63 240 1.0 3.0 0.00 0.07 0.04 40 1008.9
20260509164023 62 207 2.0 5.0 0.00 0.07 0.04 39 1008.9
20260509164020 62 285 2.0 7.0 0.00 0.07 0.04 39 1008.9
20260509164016 63 318 3.0 7.0 0.00 0.07 0.04 37 1009.0
20260509164013 63 317 2.0 7.0 0.00 0.07 0.04 39 1009.0
20260509164009 64 217 3.0 8.0 0.00 0.07 0.04 40 1009.1
20260509164006 64 327 2.0 8.0 0.00 0.07 0.04 38 1009.0
20260509163958 64 323 1.0 6.0 0.00 0.07 0.04 40 1008.9
20260509163953 64 341 3.0 9.0 0.00 0.07 0.04 37 1008.8
20260509163949 64 352 3.0 7.0 0.00 0.07 0.04 41 1008.8
20260509163946 64 321 3.0 7.0 0.00 0.07 0.04 43 1008.9
20260509163942 64 222 4.0 8.0 0.00 0.07 0.04 38 1008.9
20260509163934 63 351 4.0 9.0 0.00 0.07 0.04 39 1009.0
20260509163931 63 22 0.0 9.0 0.00 0.07 0.04 42 1009.2
20260509163926 63 350 6.0 9.0 0.00 0.07 0.04 38 1009.4
20260509163923 63 296 5.0 9.0 0.00 0.07 0.04 39 1009.5
20260509163919 62 41 3.0 10.0 0.00 0.07 0.04 40 1009.4
20260509163913 63 12 4.0 9.0 0.00 0.07 0.04 47 1009.7
20260509163907 62 282 3.0 14.0 0.00 0.07 0.04 43 1009.7
20260509163905 62 360 3.0 14.0 0.00 0.07 0.04 41 1009.7
20260509163858 61 44 4.0 10.0 0.00 0.07 0.04 46 1009.7
20260509163854 61 306 1.0 6.0 0.00 0.07 0.04 43 1009.9
20260509163849 61 340 3.0 6.0 0.00 0.07 0.04 40 1010.0
20260509163844 61 285 4.0 9.0 0.00 0.07 0.04 43 1010.1
20260509163837 60 60 4.0 11.0 0.00 0.07 0.04 43 1010.1
20260509163830 60 47 7.0 11.0 0.00 0.07 0.04 43 1010.2
20260509163827 60 335 3.0 7.0 0.00 0.07 0.04 44 1010.2
20260509163821 59 291 3.0 11.0 0.00 0.07 0.04 45 1010.5
20260509163817 59 316 6.0 14.0 0.00 0.07 0.04 43 1010.6
20260509163810 59 10 4.0 14.0 0.00 0.07 0.04 45 1010.8
20260509163802 59 311 6.0 14.0 0.00 0.07 0.04 45 1011.0
20260509163759 59 313 5.0 8.0 0.00 0.07 0.04 47 1010.8
20260509163755 59 298 3.0 10.0 0.00 0.07 0.04 48 1011.0
20260509163753 58 76 5.0 10.0 0.00 0.07 0.04 47 1011.0
20260509163747 58 13 2.0 15.0 0.00 0.07 0.04 46 1011.0
20260509163744 58 272 2.0 11.0 0.00 0.07 0.04 43 1011.1
20260509163736 58 28 6.0 12.0 0.00 0.07 0.04 45 1011.2
20260509163733 58 294 7.0 12.0 0.00 0.07 0.04 45 1011.3
20260509163729 58 351 6.0 12.0 0.00 0.07 0.04 46 1011.5
20260509163726 58 63 6.0 11.0 0.00 0.07 0.04 45 1011.4
20260509163722 57 69 5.0 12.0 0.00 0.07 0.04 44 1011.6
20260509163718 57 19 4.0 13.0 0.00 0.07 0.04 46 1011.6
20260509163714 57 360 7.0 13.0 0.00 0.07 0.04 44 1011.8
20260509163710 57 41 5.0 13.0 0.00 0.07 0.04 45 1011.8
20260509163707 57 64 7.0 13.0 0.00 0.07 0.04 44 1011.9
20260509163701 57 360 2.0 14.0 0.00 0.07 0.04 51 1011.9
20260509163656 57 41 5.0 14.0 0.00 0.07 0.04 46 1012.0
20260509163653 56 325 6.0 12.0 0.00 0.07 0.04 45 1011.9
20260509163648 56 320 5.0 12.0 0.00 0.07 0.04 48 1012.0
20260509163644 57 344 7.0 13.0 0.00 0.07 0.04 44 1012.0
20260509163641 57 18 6.0 13.0 0.00 0.07 0.04 44 1012.0
20260509163637 57 51 4.0 11.0 0.00 0.07 0.04 50 1012.0
20260509163632 56 9 6.0 14.0 0.00 0.07 0.04 48 1012.2
20260509163627 55 352 3.0 14.0 0.00 0.07 0.04 45 1012.3
20260509163624 55 304 6.0 14.0 0.00 0.08 0.04 45 1012.4
20260509163621 55 322 7.0 15.0 0.00 0.08 0.04 45 1012.5
20260509163617 55 333 9.0 15.0 0.00 0.08 0.04 44 1012.5
20260509163615 55 304 9.0 13.0 0.00 0.08 0.04 47 1012.5
20260509163609 55 28 6.0 13.0 0.00 0.09 0.04 46 1012.6
20260509163604 54 360 4.0 13.0 0.00 0.10 0.04 47 1012.6
20260509163558 54 329 7.0 13.0 0.00 0.11 0.04 50 1012.6
20260509163555 53 311 6.0 11.0 0.00 0.11 0.04 49 1012.5
20260509163550 53 32 4.0 10.0 0.00 0.12 0.04 49 1012.8
20260509163545 53 333 5.0 10.0 0.00 0.12 0.04 48 1012.9
20260509163543 53 332 6.0 10.0 0.00 0.12 0.04 48 1013.1
20260509163538 53 352 4.0 9.0 0.00 0.12 0.04 50 1013.1
20260509163534 52 28 4.0 11.0 0.00 0.13 0.04 50 1013.3
20260509163526 52 329 6.0 11.0 0.00 0.13 0.04 49 1013.2
20260509163523 52 320 4.0 8.0 0.00 0.13 0.04 50 1013.4
20260509163519 52 5 4.0 10.0 0.00 0.14 0.04 53 1013.4
20260509163516 51 319 5.0 10.0 0.00 0.15 0.04 52 1013.5
20260509163514 51 348 5.0 11.0 0.00 0.15 0.04 54 1013.2
20260509163510 51 16 5.0 8.0 0.00 0.16 0.04 54 1013.4
20260509163458 51 360 5.0 11.0 0.00 0.17 0.04 53 1013.4
20260509163455 51 327 5.0 12.0 0.00 0.18 0.04 54 1013.4
20260509163452 51 333 7.0 10.0 0.00 0.19 0.04 54 1013.4
20260509163449 50 339 4.0 10.0 0.00 0.19 0.04 56 1013.3
20260509163442 50 5 3.0 9.0 0.00 0.20 0.04 57 1013.3
20260509163438 50 360 4.0 11.0 0.00 0.20 0.04 58 1013.1
20260509163435 50 352 6.0 11.0 0.00 0.21 0.04 56 1013.1
20260509163431 50 350 6.0 10.0 0.00 0.21 0.04 58 1013.1
20260509163427 50 341 5.0 10.0 0.00 0.22 0.04 62 1013.1
20260509163422 50 360 5.0 10.0 0.00 0.22 0.04 62 1013.0
20260509163419 50 351 6.0 10.0 0.00 0.22 0.04 63 1013.0
20260509163416 49 308 5.0 13.0 0.00 0.22 0.04 68 1012.9
20260509163413 49 315 6.0 11.0 0.00 0.22 0.04 69 1013.0
20260509163405 49 338 4.0 9.0 0.00 0.22 0.04 72 1012.9
20260509163358 49 352 3.0 9.0 0.00 0.22 0.04 72 1013.0
20260509163354 49 331 3.0 8.0 0.00 0.22 0.04 74 1013.0
20260509163350 49 322 2.0 8.0 0.00 0.22 0.04 74 1013.1
20260509163341 49 344 2.0 5.0 0.00 0.22 0.04 74 1013.1
20260509163339 48 324 2.0 5.0 0.00 0.22 0.04 74 1012.9
20260509163331 48 331 2.0 5.0 0.00 0.22 0.04 75 1012.8
20260509163325 48 314 1.0 4.0 0.00 0.22 0.04 75 1012.5
20260509163320 48 345 2.0 3.0 0.00 0.22 0.04 77 1012.6
20260509163317 48 352 0.0 2.0 0.00 0.22 0.04 80 1012.5
20260509163311 48 327 0.0 2.0 0.00 0.22 0.04 75 1012.7
20260509163301 48 348 2.0 4.0 0.00 0.22 0.04 73 1012.1
20260509163256 48 360 2.0 3.0 0.00 0.22 0.04 74 1012.1
20260509163253 49 339 1.0 3.0 0.00 0.22 0.04 74 1012.0
20260509163247 49 350 0.0 4.0 0.00 0.22 0.04 73 1011.9
20260509163243 49 360 2.0 6.0 0.00 0.22 0.04 73 1012.0
20260509163239 49 336 3.0 6.0 0.00 0.22 0.04 72 1011.9
20260509163237 49 65 2.0 5.0 0.00 0.22 0.04 74 1011.9
20260509163229 49 352 1.0 4.0 0.00 0.22 0.04 76 1011.8
20260509163226 49 23 1.0 5.0 0.00 0.22 0.04 75 1011.8
20260509163223 49 22 1.0 5.0 0.00 0.22 0.04 75 1011.8
20260509163216 49 11 2.0 9.0 0.00 0.22 0.04 76 1011.9
20260509163211 49 5 3.0 8.0 0.00 0.22 0.04 77 1011.9
20260509163207 49 349 3.0 8.0 0.00 0.22 0.04 82 1011.6
20260509163159 50 12 4.0 8.0 0.00 0.22 0.04 89 1011.7
20260509163155 50 325 1.0 8.0 0.00 0.22 0.04 91 1011.7
20260509163152 50 18 0.0 5.0 0.00 0.22 0.04 91 1011.6
20260509163148 50 329 2.0 5.0 0.00 0.22 0.04 91 1011.5
20260509163144 50 20 2.0 5.0 0.00 0.22 0.04 92 1011.3
20260509163138 50 352 1.0 2.0 0.00 0.22 0.04 91 1011.3
20260509163133 50 38 0.0 2.0 0.00 0.22 0.04 92 1011.2
20260509163127 50 15 0.0 2.0 0.00 0.22 0.04 91 1011.2
20260509163123 50 15 0.0 2.0 0.00 0.22 0.04 91 1011.3
20260509163118 50 15 0.0 2.0 0.00 0.22 0.04 91 1011.3
20260509163114 50 15 0.0 2.0 0.01 0.22 0.04 91 1011.4
20260509163112 50 15 0.0 2.0 0.02 0.22 0.04 91 1011.2
20260509163107 50 39 0.0 3.0 0.04 0.22 0.04 91 1011.1
20260509163100 50 335 0.0 4.0 0.04 0.22 0.04 91 1011.3
20260509163057 50 11 2.0 4.0 0.04 0.22 0.04 91 1011.3
20260509163054 50 339 1.0 3.0 0.04 0.22 0.04 90 1011.5
20260509163051 50 10 1.0 3.0 0.04 0.22 0.04 90 1011.7
20260509163047 51 24 1.0 5.0 0.02 0.20 0.02 88 1011.8
20260509163040 51 360 2.0 5.0 0.00 0.18 0.00 87 1011.8
20260509163034 51 22 3.0 6.0 0.00 0.18 0.00 87 1011.8
20260509163026 52 13 3.0 10.0 0.00 0.18 0.00 86 1011.8
20260509163022 52 14 4.0 10.0 0.00 0.18 0.00 85 1011.7
20260509163004 52 319 5.0 10.0 0.00 0.18 0.00 85 1011.5
20260509162959 52 348 5.0 9.0 0.00 0.18 0.00 86 1011.6
20260509162957 52 360 3.0 5.0 0.00 0.18 0.00 87 1011.5
20260509162954 52 5 1.0 9.0 0.00 0.18 0.00 87 1011.6
20260509162947 52 360 4.0 9.0 0.00 0.18 0.00 88 1011.4
20260509162945 53 345 2.0 3.0 0.00 0.18 0.00 88 1011.6
20260509162941 53 9 1.0 2.0 0.00 0.18 0.00 87 1011.4
20260509162937 53 352 0.0 2.0 0.00 0.18 0.00 87 1011.6
20260509162932 53 352 0.0 2.0 0.00 0.18 0.00 86 1011.5
20260509162925 53 341 1.0 5.0 0.00 0.18 0.00 86 1011.8
20260509162919 53 360 3.0 11.0 0.00 0.18 0.00 85 1011.4
20260509162916 53 331 4.0 12.0 0.00 0.18 0.00 86 1011.5
20260509162911 54 5 2.0 5.0 0.00 0.18 0.00 89 1011.5
20260509162905 54 336 3.0 4.0 0.00 0.18 0.00 89 1011.6
20260509162858 54 331 2.0 9.0 0.01 0.18 0.00 88 1011.4
20260509162855 54 17 3.0 8.0 0.01 0.18 0.00 88 1011.3
20260509162848 54 12 4.0 8.0 0.02 0.18 0.00 87 1011.4
20260509162841 54 352 5.0 6.0 0.03 0.18 0.00 88 1011.2
20260509162838 55 318 2.0 5.0 0.03 0.18 0.18 89 1011.4
20260509162832 55 29 2.0 6.0 0.03 0.18 0.18 89 1010.8
20260509162825 55 338 2.0 7.0 0.03 0.18 0.18 88 1011.0
20260509162821 55 292 4.0 8.0 0.03 0.18 0.18 87 1010.5
20260509162815 56 324 3.0 8.0 0.02 0.17 0.17 86 1011.3
20260509162810 56 323 4.0 8.0 0.00 0.15 0.15 84 1011.1
20260509162804 57 352 3.0 8.0 0.00 0.15 0.15 84 1010.9
20260509162757 57 331 3.0 10.0 0.00 0.15 0.15 83 1010.8
20260509162750 58 322 6.0 12.0 0.00 0.15 0.15 82 1010.7
20260509162747 58 9 9.0 12.0 0.00 0.15 0.15 82 1011.0
20260509162743 58 309 6.0 10.0 0.00 0.15 0.15 83 1010.8
20260509162741 59 328 5.0 9.0 0.00 0.15 0.15 85 1010.7
20260509162737 59 348 4.0 9.0 0.00 0.15 0.15 85 1010.6
20260509162734 59 15 5.0 9.0 0.00 0.15 0.15 85 1010.5
20260509162731 59 9 3.0 9.0 0.00 0.15 0.15 86 1010.4
20260509162726 59 22 3.0 9.0 0.00 0.15 0.15 86 1010.4
20260509162723 60 29 3.0 8.0 0.00 0.15 0.15 87 1010.4
20260509162719 60 360 3.0 8.0 0.00 0.15 0.15 86 1010.6
20260509162716 60 281 3.0 6.0 0.00 0.15 0.15 86 1010.6
20260509162713 60 324 2.0 7.0 0.00 0.15 0.15 86 1010.6
20260509162709 60 342 3.0 10.0 0.00 0.15 0.15 85 1010.3
20260509162703 61 325 4.0 9.0 0.00 0.15 0.15 84 1010.8
20260509162656 61 350 3.0 10.0 0.00 0.15 0.15 83 1010.6
20260509162652 61 311 4.0 9.0 0.00 0.15 0.15 82 1010.6
20260509162645 62 321 4.0 12.0 0.00 0.15 0.15 82 1010.6
20260509162637 62 328 3.0 12.0 0.00 0.15 0.15 83 1010.6
20260509162633 62 315 7.0 12.0 0.00 0.15 0.15 83 1010.5
20260509162629 63 296 6.0 12.0 0.00 0.15 0.15 82 1010.4
20260509162625 63 320 6.0 10.0 0.00 0.15 0.15 83 1010.6
20260509162622 63 311 5.0 16.0 0.00 0.15 0.15 84 1010.3
20260509162618 64 317 8.0 16.0 0.00 0.15 0.15 86 1010.1
20260509162616 64 294 1.0 5.0 0.00 0.15 0.15 88 1010.2
20260509162611 64 269 0.0 6.0 0.00 0.15 0.15 88 1010.0
20260509162607 64 221 0.0 2.0 0.00 0.15 0.15 87 1009.8
20260509162559 65 195 1.0 2.0 0.00 0.15 0.15 87 1009.7
20260509162556 65 246 1.0 2.0 0.00 0.15 0.15 86 1009.8
20260509162552 65 246 1.0 4.0 0.00 0.15 0.15 85 1009.6
20260509162548 65 267 1.0 3.0 0.00 0.15 0.15 85 1009.2
20260509162545 66 314 0.0 3.0 0.00 0.15 0.15 84 1009.1
20260509162542 66 265 1.0 3.0 0.00 0.15 0.15 84 1009.1
20260509162535 66 279 0.0 2.0 0.00 0.15 0.15 83 1009.0
20260509162529 66 279 0.0 2.0 0.00 0.15 0.15 83 1009.1
20260509162525 66 291 0.0 2.0 0.00 0.15 0.15 83 1008.9
20260509162521 66 273 0.0 1.0 0.00 0.15 0.15 82 1008.9
20260509162518 66 273 0.0 2.0 0.00 0.15 0.15 82 1009.0
20260509162512 66 286 0.0 3.0 0.00 0.15 0.15 82 1009.0
20260509162506 66 273 0.0 6.0 0.00 0.15 0.15 82 1009.0
20260509162501 66 219 1.0 6.0 0.00 0.15 0.15 82 1008.9
20260509162455 66 246 1.0 5.0 0.00 0.15 0.15 82 1008.9
20260509162452 66 308 1.0 5.0 0.00 0.15 0.15 83 1009.0
20260509162448 66 273 2.0 5.0 0.00 0.15 0.15 83 1009.0
20260509162442 66 248 1.0 4.0 0.00 0.15 0.15 83 1009.0
20260509162434 66 222 0.0 3.0 0.00 0.15 0.15 83 1009.0
20260509162430 66 214 2.0 4.0 0.00 0.15 0.15 83 1009.0
20260509162427 65 290 0.0 2.0 0.00 0.15 0.15 84 1009.0
20260509162423 65 234 0.0 2.0 0.00 0.15 0.15 83 1009.0
20260509162417 66 250 0.0 4.0 0.00 0.15 0.15 83 1008.7
20260509162413 65 232 1.0 4.0 0.00 0.15 0.15 82 1008.6
20260509162410 66 229 3.0 7.0 0.00 0.15 0.15 82 1008.4
20260509162403 66 220 3.0 6.0 0.00 0.15 0.15 82 1008.2
20260509162358 66 244 3.0 6.0 0.00 0.15 0.15 81 1008.4
20260509162353 66 278 2.0 5.0 0.00 0.15 0.15 81 1008.3
20260509162347 66 198 4.0 7.0 0.00 0.15 0.15 82 1008.4
20260509162344 66 220 3.0 5.0 0.00 0.15 0.15 81 1008.2
20260509162341 66 313 2.0 5.0 0.00 0.15 0.15 81 1008.3
20260509162337 66 256 2.0 6.0 0.00 0.15 0.15 81 1008.5
20260509162331 66 206 2.0 9.0 0.00 0.15 0.15 82 1008.3
20260509162326 66 209 3.0 9.0 0.00 0.15 0.15 81 1008.3
20260509162323 66 226 4.0 9.0 0.00 0.15 0.15 82 1008.3
20260509162319 66 277 2.0 9.0 0.00 0.15 0.15 82 1008.4
20260509162316 66 222 2.0 7.0 0.00 0.15 0.15 82 1008.5
20260509162314 66 269 2.0 10.0 0.00 0.15 0.15 81 1008.4
20260509162310 66 200 4.0 9.0 0.00 0.15 0.15 81 1008.4
20260509162259 66 263 2.0 7.0 0.00 0.15 0.15 82 1008.4
20260509162256 66 290 2.0 9.0 0.00 0.15 0.15 81 1008.3
20260509162252 66 292 4.0 11.0 0.00 0.15 0.15 81 1008.4
20260509162249 66 230 6.0 11.0 0.00 0.15 0.15 80 1008.5
20260509162242 66 211 3.0 10.0 0.00 0.15 0.15 82 1008.6
20260509162240 66 212 5.0 10.0 0.00 0.15 0.15 81 1008.7
20260509162232 66 185 3.0 16.0 0.00 0.15 0.15 82 1008.6
20260509162229 66 275 5.0 14.0 0.00 0.15 0.15 82 1008.6
20260509162226 66 207 6.0 14.0 0.00 0.15 0.15 83 1008.7
20260509162222 65 242 7.0 14.0 0.00 0.15 0.15 83 1008.7
20260509162218 65 215 6.0 14.0 0.00 0.15 0.15 83 1008.8
20260509162215 65 232 6.0 14.0 0.00 0.15 0.15 84 1008.8
20260509162210 65 199 8.0 14.0 0.00 0.15 0.15 84 1008.8
20260509162206 63 240 6.0 15.0 0.00 0.15 0.15 87 1008.8
20260509162200 63 235 6.0 15.0 0.00 0.15 0.15 87 1008.9
20260509162158 62 211 6.0 13.0 0.00 0.15 0.15 87 1008.9
20260509162155 62 242 7.0 14.0 0.00 0.15 0.15 88 1009.1
20260509162150 62 229 8.0 14.0 0.00 0.15 0.15 88 1009.0
20260509162144 62 249 5.0 12.0 0.00 0.15 0.15 89 1009.1
20260509162141 61 204 6.0 11.0 0.00 0.15 0.15 89 1009.2
20260509162139 61 227 6.0 14.0 0.00 0.15 0.15 89 1009.1
20260509162135 61 229 8.0 14.0 0.00 0.15 0.15 89 1009.0
20260509162130 61 191 7.0 16.0 0.00 0.15 0.15 89 1009.1
20260509162126 61 233 6.0 16.0 0.00 0.15 0.15 90 1009.1
20260509162122 61 237 9.0 16.0 0.00 0.15 0.15 90 1009.1
20260509162118 60 238 5.0 11.0 0.00 0.15 0.15 91 1009.1
20260509162115 60 217 5.0 11.0 0.00 0.15 0.15 91 1009.1
20260509162112 60 220 4.0 8.0 0.00 0.15 0.15 91 1009.1
20260509162106 60 204 5.0 17.0 0.00 0.15 0.15 91 1009.2
20260509162059 60 217 8.0 13.0 0.00 0.15 0.15 91 1009.2
20260509162055 60 207 5.0 13.0 0.00 0.15 0.15 91 1009.1
20260509162052 60 226 4.0 13.0 0.00 0.15 0.15 91 1009.1
20260509162045 60 212 7.0 14.0 0.01 0.15 0.15 91 1009.3
20260509162041 60 207 6.0 15.0 0.01 0.15 0.15 92 1009.3
20260509162036 59 186 7.0 18.0 0.02 0.15 0.15 92 1009.3
20260509162029 59 207 8.0 18.0 0.02 0.15 0.15 92 1009.3
20260509162026 59 192 9.0 18.0 0.03 0.15 0.15 92 1009.3
20260509162021 59 197 8.0 16.0 0.05 0.15 0.15 93 1009.2
20260509162016 59 202 8.0 15.0 0.05 0.15 0.15 93 1009.2
20260509162011 59 212 9.0 15.0 0.04 0.14 0.14 93 1009.3
20260509162007 59 191 4.0 12.0 0.04 0.14 0.14 93 1009.2
20260509161959 59 263 7.0 12.0 0.04 0.14 0.14 93 1009.7
20260509161956 59 201 6.0 11.0 0.04 0.13 0.13 92 1009.7
20260509161954 59 220 5.0 13.0 0.04 0.13 0.13 92 1010.0
20260509161949 59 212 6.0 14.0 0.03 0.12 0.12 92 1010.1
20260509161947 59 198 7.0 14.0 0.03 0.11 0.11 92 1010.0
20260509161943 59 200 8.0 14.0 0.04 0.11 0.11 92 1009.9
20260509161940 59 220 6.0 14.0 0.03 0.10 0.10 92 1009.9
20260509161938 59 199 6.0 14.0 0.04 0.10 0.10 92 1009.8
20260509161934 59 183 6.0 13.0 0.04 0.10 0.10 92 1009.7
20260509161926 59 186 4.0 13.0 0.04 0.10 0.10 92 1009.6
20260509161922 59 227 5.0 11.0 0.06 0.10 0.10 92 1009.7
20260509161919 59 139 5.0 11.0 0.07 0.10 0.10 91 1009.5
20260509161916 59 175 5.0 11.0 0.06 0.09 0.09 91 1009.6
20260509161914 59 207 4.0 11.0 0.07 0.09 0.09 91 1009.5
20260509161910 59 209 4.0 10.0 0.06 0.08 0.08 91 1010.0
20260509161858 60 209 4.0 9.0 0.06 0.07 0.07 90 1010.1
20260509161855 59 204 4.0 10.0 0.06 0.06 0.06 90 1010.1
20260509161853 59 193 6.0 10.0 0.06 0.06 0.06 89 1010.1
20260509161849 60 184 5.0 11.0 0.06 0.06 0.06 89 1010.1
20260509161845 60 192 4.0 12.0 0.05 0.05 0.05 88 1010.2
20260509161841 60 213 7.0 12.0 0.04 0.04 0.04 87 1010.2
20260509161839 60 202 5.0 12.0 0.03 0.03 0.03 87 1010.1
20260509161831 60 198 3.0 11.0 0.02 0.02 0.02 85 1010.0
20260509161825 61 211 5.0 9.0 0.02 0.02 0.02 84 1010.0
20260509161823 61 247 3.0 8.0 0.01 0.01 0.01 84 1010.1
20260509161819 61 238 4.0 14.0 0.01 0.01 0.01 83 1010.1
20260509161817 61 201 5.0 14.0 0.00 0.00 0.00 82 1010.1
20260509161809 62 188 5.0 14.0 0.00 0.00 0.00 81 1010.2
20260509161806 62 169 4.0 12.0 0.00 0.00 0.00 78 1010.3
20260509161759 62 222 4.0 15.0 0.00 0.00 0.00 78 1010.4
20260509161755 63 242 4.0 13.0 0.00 0.00 0.00 76 1010.6
20260509161753 63 200 6.0 13.0 0.00 0.00 0.00 76 1010.5
20260509161749 63 219 6.0 14.0 0.00 0.00 0.00 76 1010.6
20260509161741 63 202 6.0 13.0 0.00 0.00 0.00 76 1010.1
20260509161738 63 223 7.0 13.0 0.00 0.00 0.00 75 1010.2
20260509161734 63 205 4.0 13.0 0.00 0.00 0.00 75 1010.0
20260509161729 63 246 4.0 15.0 0.00 0.00 0.00 75 1009.9
20260509161726 63 215 6.0 13.0 0.00 0.00 0.00 75 1009.9
20260509161721 63 219 4.0 10.0 0.00 0.00 0.00 74 1009.9
20260509161719 63 194 5.0 15.0 0.00 0.00 0.00 74 1009.8
20260509161714 63 182 5.0 15.0 0.00 0.00 0.00 73 1009.6
20260509161709 63 200 5.0 12.0 0.00 0.00 0.00 73 1009.7
20260509161705 63 192 8.0 13.0 0.00 0.00 0.00 72 1009.5
20260509161702 63 212 6.0 13.0 0.00 0.00 0.00 72 1009.3
20260509161657 63 218 8.0 13.0 0.00 0.00 0.00 72 1009.4
20260509161655 63 211 7.0 11.0 0.00 0.00 0.00 72 1009.4
20260509161651 63 268 6.0 11.0 0.00 0.00 0.00 71 1009.3
20260509161644 63 202 3.0 13.0 0.00 0.00 0.00 71 1009.3
20260509161635 64 194 3.0 12.0 0.00 0.00 0.00 70 1009.4
20260509161632 64 188 7.0 12.0 0.00 0.00 0.00 70 1009.4
20260509161625 64 213 8.0 12.0 0.00 0.00 0.00 69 1009.3
20260509161621 64 234 7.0 12.0 0.00 0.00 0.00 69 1009.3
20260509161618 64 196 7.0 11.0 0.00 0.00 0.00 68 1009.4
20260509161614 64 223 6.0 11.0 0.00 0.00 0.00 68 1009.3
20260509161609 64 209 4.0 10.0 0.00 0.00 0.00 67 1009.3
20260509161605 65 188 5.0 13.0 0.00 0.00 0.00 66 1009.4
20260509161601 65 200 7.0 13.0 0.00 0.00 0.00 66 1009.3
20260509161558 65 193 5.0 12.0 0.00 0.00 0.00 66 1009.3
20260509161556 65 194 5.0 13.0 0.00 0.00 0.00 65 1009.6
20260509161553 65 209 7.0 15.0 0.00 0.00 0.00 64 1009.7
20260509161537 66 144 7.0 13.0 0.00 0.00 0.00 63 1009.5
20260509161535 66 205 6.0 16.0 0.00 0.00 0.00 63 1009.4
20260509161530 66 175 7.0 16.0 0.00 0.00 0.00 62 1009.5
20260509161520 66 213 6.0 13.0 0.00 0.00 0.00 62 1009.6
20260509161504 66 212 8.0 13.0 0.00 0.00 0.00 62 1009.4
20260509161458 66 233 5.0 12.0 0.00 0.00 0.00 62 1009.5
20260509161455 66 223 5.0 12.0 0.00 0.00 0.00 62 1009.7
20260509161452 66 154 6.0 12.0 0.00 0.00 0.00 61 1009.8
20260509161446 67 215 7.0 11.0 0.00 0.00 0.00 61 1009.7
20260509161443 67 212 7.0 12.0 0.00 0.00 0.00 60 1009.9
20260509161439 67 201 6.0 11.0 0.00 0.00 0.00 60 1009.9
20260509161432 67 196 5.0 15.0 0.00 0.00 0.00 59 1009.9
20260509161428 67 204 7.0 10.0 0.00 0.00 0.00 59 1010.1
20260509161423 67 235 7.0 10.0 0.00 0.00 0.00 59 1010.2
20260509161420 68 232 6.0 10.0 0.00 0.00 0.00 58 1010.2
20260509161415 68 221 4.0 12.0 0.00 0.00 0.00 58 1010.3
20260509161409 68 213 5.0 12.0 0.00 0.00 0.00 57 1010.4
20260509161406 68 215 4.0 13.0 0.00 0.00 0.00 57 1010.4
20260509161401 68 207 6.0 15.0 0.00 0.00 0.00 57 1010.4
20260509161354 68 232 7.0 12.0 0.00 0.00 0.00 57 1010.4
20260509161351 68 240 5.0 12.0 0.00 0.00 0.00 57 1010.5
20260509161344 68 259 5.0 12.0 0.00 0.00 0.00 56 1010.5
20260509161342 68 217 6.0 20.0 0.00 0.00 0.00 56 1010.7
20260509161337 69 225 7.0 19.0 0.00 0.00 0.00 56 1010.8
20260509161333 69 217 7.0 15.0 0.00 0.00 0.00 55 1010.9
20260509161325 69 232 6.0 15.0 0.00 0.00 0.00 55 1010.8
20260509161322 69 208 5.0 10.0 0.00 0.00 0.00 55 1010.9
20260509161320 69 200 4.0 14.0 0.00 0.00 0.00 55 1011.0
20260509161316 69 191 7.0 14.0 0.00 0.00 0.00 55 1011.0
20260509161310 69 203 7.0 16.0 0.00 0.00 0.00 54 1011.1
20260509161304 69 170 5.0 13.0 0.00 0.00 0.00 54 1011.1
20260509161257 69 214 5.0 11.0 0.00 0.00 0.00 54 1011.0
20260509161254 69 213 6.0 14.0 0.00 0.00 0.00 53 1010.9
20260509161251 69 173 7.0 14.0 0.00 0.00 0.00 53 1011.0
20260509161248 68 213 7.0 13.0 0.00 0.00 0.00 53 1011.0
20260509161244 68 178 7.0 12.0 0.00 0.00 0.00 53 1010.9
20260509161240 68 180 6.0 12.0 0.00 0.00 0.00 52 1010.9
20260509161236 68 208 6.0 12.0 0.00 0.00 0.00 52 1011.0
20260509161234 68 188 4.0 12.0 0.00 0.00 0.00 52 1010.8
20260509161226 68 199 5.0 11.0 0.00 0.00 0.00 51 1010.8
20260509161223 68 198 5.0 9.0 0.00 0.00 0.00 50 1010.8
20260509161219 68 186 5.0 10.0 0.00 0.00 0.00 49 1010.7
20260509161216 68 201 5.0 11.0 0.00 0.00 0.00 49 1010.8
20260509161207 68 198 5.0 11.0 0.00 0.00 0.00 48 1010.8
20260509161202 69 193 4.0 13.0 0.00 0.00 0.00 47 1010.8
20260509161159 69 263 4.0 13.0 0.00 0.00 0.00 46 1010.7
20260509161157 69 220 7.0 11.0 0.00 0.00 0.00 46 1010.8
20260509161152 69 189 6.0 11.0 0.00 0.00 0.00 45 1010.8
20260509161148 69 193 4.0 8.0 0.00 0.00 0.00 44 1010.8
20260509161143 69 161 5.0 7.0 0.00 0.00 0.00 44 1010.7
20260509161139 69 150 3.0 7.0 0.00 0.00 0.00 44 1010.9
20260509161136 69 204 3.0 9.0 0.00 0.00 0.00 43 1010.8
20260509161129 70 208 5.0 10.0 0.00 0.00 0.00 42 1010.9
20260509161126 70 200 4.0 11.0 0.00 0.00 0.00 42 1011.0
20260509161123 70 188 4.0 11.0 0.00 0.00 0.00 41 1011.0
20260509161116 70 195 7.0 13.0 0.00 0.00 0.00 41 1010.9
20260509161113 70 216 5.0 9.0 0.00 0.00 0.00 40 1010.9
20260509161108 70 184 5.0 13.0 0.00 0.00 0.00 39 1010.7
20260509161059 71 179 3.0 10.0 0.00 0.00 0.00 39 1010.5
20260509161056 71 210 6.0 13.0 0.00 0.00 0.00 39 1010.6
20260509161052 71 184 7.0 13.0 0.00 0.00 0.00 38 1010.6
20260509161049 71 212 4.0 10.0 0.00 0.00 0.00 38 1010.6
20260509161042 71 206 6.0 11.0 0.00 0.00 0.00 38 1010.5
20260509161039 71 213 4.0 9.0 0.00 0.00 0.00 38 1010.5
20260509161033 72 190 5.0 13.0 0.00 0.00 0.00 37 1010.4
20260509161029 72 222 6.0 13.0 0.00 0.00 0.00 37 1010.3
20260509161023 72 200 5.0 12.0 0.00 0.00 0.00 36 1010.3
20260509161019 73 209 5.0 9.0 0.00 0.00 0.00 36 1010.1
20260509161014 73 218 4.0 10.0 0.00 0.00 0.00 36 1010.0
20260509161009 73 200 5.0 11.0 0.00 0.00 0.00 35 1010.0
20260509160959 73 175 7.0 11.0 0.00 0.00 0.00 35 1010.0
20260509160955 74 210 5.0 12.0 0.00 0.00 0.00 35 1009.9
20260509160952 74 229 6.0 12.0 0.00 0.00 0.00 34 1009.9
20260509160949 74 217 7.0 11.0 0.00 0.00 0.00 35 1009.9
20260509160944 75 223 6.0 11.0 0.00 0.00 0.00 34 1009.9
20260509160941 75 223 5.0 18.0 0.00 0.00 0.00 34 1009.9
20260509160936 75 223 7.0 18.0 0.00 0.00 0.00 35 1009.7
20260509160929 75 200 7.0 15.0 0.00 0.00 0.00 34 1009.7
20260509160926 75 243 5.0 15.0 0.00 0.00 0.00 35 1009.6
20260509160923 75 211 5.0 13.0 0.00 0.00 0.00 35 1009.6
20260509160921 76 209 7.0 14.0 0.00 0.00 0.00 34 1009.7
20260509160915 76 194 6.0 17.0 0.00 0.00 0.00 35 1009.7
20260509160910 76 200 6.0 17.0 0.00 0.00 0.00 35 1009.6
20260509160906 76 221 10.0 17.0 0.00 0.00 0.00 35 1009.6
20260509160903 76 213 7.0 13.0 0.00 0.00 0.00 35 1009.6
20260509160858 76 196 8.0 13.0 0.00 0.00 0.00 35 1009.7
20260509160855 76 196 7.0 15.0 0.00 0.00 0.00 35 1009.8
20260509160852 76 177 7.0 15.0 0.00 0.00 0.00 35 1009.8
20260509160846 77 200 7.0 14.0 0.00 0.00 0.00 35 1009.8
20260509160842 77 208 9.0 17.0 0.00 0.00 0.00 33 1010.0
20260509160838 77 190 8.0 17.0 0.00 0.00 0.00 33 1009.9
20260509160834 78 213 8.0 17.0 0.00 0.00 0.00 32 1009.7
20260509160826 79 211 6.0 20.0 0.00 0.00 0.00 31 1009.6
20260509160823 79 210 9.0 20.0 0.00 0.00 0.00 31 1009.6
20260509160819 80 264 11.0 17.0 0.00 0.00 0.00 30 1009.3
20260509160815 80 218 6.0 24.0 0.00 0.00 0.00 32 1009.4
20260509160811 79 217 7.0 24.0 0.00 0.00 0.00 31 1009.4
20260509160806 80 208 6.0 23.0 0.00 0.00 0.00 31 1009.4
20260509160802 80 200 12.0 22.0 0.00 0.00 0.00 31 1009.4
20260509160759 80 200 11.0 22.0 0.00 0.00 0.00 31 1009.3
20260509160756 80 207 10.0 22.0 0.00 0.00 0.00 30 1009.3
20260509160753 80 191 11.0 20.0 0.00 0.00 0.00 30 1009.3
20260509160748 79 194 9.0 21.0 0.00 0.00 0.00 30 1009.4
20260509160743 79 208 12.0 29.0 0.00 0.00 0.00 31 1009.3
20260509160736 80 223 10.0 19.0 0.00 0.00 0.00 33 1009.4
20260509160733 80 221 11.0 23.0 0.00 0.00 0.00 32 1009.4
20260509160729 80 208 10.0 17.0 0.00 0.00 0.00 31 1009.1
20260509160726 80 233 10.0 25.0 0.00 0.00 0.00 31 1009.4
20260509160722 80 194 13.0 25.0 0.00 0.00 0.00 30 1009.3
20260509160719 80 182 12.0 23.0 0.00 0.00 0.00 32 1009.4
20260509160714 80 212 7.0 20.0 0.00 0.00 0.00 34 1009.3
20260509160708 80 209 7.0 23.0 0.00 0.00 0.00 35 1009.8
20260509160700 80 198 9.0 19.0 0.00 0.00 0.00 34 1009.6
20260509160654 80 240 9.0 22.0 0.00 0.00 0.00 32 1009.7
20260509160649 80 209 9.0 17.0 0.00 0.00 0.00 35 1009.9
20260509160646 80 202 7.0 19.0 0.00 0.00 0.00 35 1009.8
20260509160643 80 196 10.0 19.0 0.00 0.00 0.00 35 1009.9
20260509160639 80 202 11.0 18.0 0.00 0.00 0.00 33 1010.1
20260509160634 80 193 11.0 18.0 0.00 0.00 0.00 33 1010.2
20260509160626 80 210 9.0 16.0 0.00 0.00 0.00 35 1010.2
20260509160623 80 237 11.0 21.0 0.00 0.00 0.00 33 1010.6
20260509160619 80 244 7.0 17.0 0.00 0.00 0.00 33 1010.6
20260509160614 79 219 12.0 20.0 0.00 0.00 0.00 33 1010.7
20260509160608 79 200 8.0 21.0 0.00 0.00 0.00 36 1010.5
20260509160604 79 222 13.0 21.0 0.00 0.00 0.00 35 1010.7
20260509160558 79 184 12.0 21.0 0.00 0.00 0.00 35 1010.7
20260509160553 79 200 12.0 19.0 0.00 0.00 0.00 34 1010.9
20260509160551 79 242 6.0 20.0 0.00 0.00 0.00 36 1011.0
20260509160546 79 208 8.0 19.0 0.00 0.00 0.00 37 1011.1
20260509160539 79 202 10.0 19.0 0.00 0.00 0.00 36 1011.1
20260509160535 79 211 8.0 20.0 0.00 0.00 0.00 36 1011.2
20260509160526 79 209 7.0 15.0 0.00 0.00 0.00 37 1011.2
20260509160523 78 257 4.0 18.0 0.00 0.00 0.00 39 1011.3
20260509160519 78 211 5.0 21.0 0.00 0.00 0.00 38 1011.2
20260509160516 78 157 10.0 21.0 0.00 0.00 0.00 38 1011.3
20260509160513 78 198 13.0 19.0 0.00 0.00 0.00 38 1011.5
20260509160509 78 254 7.0 21.0 0.00 0.00 0.00 38 1011.5
20260509160507 78 186 10.0 21.0 0.00 0.00 0.00 37 1011.4
20260509160503 78 241 3.0 11.0 0.00 0.00 0.00 43 1011.6
20260509160500 78 236 4.0 13.0 0.00 0.00 0.00 45 1011.7
20260509160454 78 216 5.0 17.0 0.00 0.00 0.00 41 1011.8
20260509160446 77 240 8.0 20.0 0.00 0.00 0.00 1011.8
20260509160437 77 232 3.0 13.0 0.00 0.00 0.00 43 1011.9
20260509160430 77 219 8.0 13.0 0.00 0.00 0.00 41 1011.8
20260509160427 77 213 8.0 17.0 0.00 0.00 0.00 38 1012.0
20260509160424 77 210 8.0 17.0 0.00 0.00 0.00 44 1012.0
20260509160419 77 225 5.0 16.0 0.00 0.00 0.00 45 1012.0
20260509160416 76 186 6.0 14.0 0.00 0.00 0.00 44 1012.0
20260509160411 76 317 5.0 13.0 0.00 0.00 0.00 43 1012.0
20260509160404 76 264 5.0 14.0 0.00 0.00 0.00 42 1012.1
20260509160356 76 284 5.0 14.0 0.00 0.00 0.00 44 1012.1
20260509160350 76 196 7.0 11.0 0.00 0.00 0.00 45 1012.0
20260509160343 75 195 3.0 12.0 0.00 0.00 0.00 45 1012.0
20260509160337 75 240 3.0 16.0 0.00 0.00 0.00 46 1012.0
20260509160334 74 227 5.0 12.0 0.00 0.00 0.00 46 1012.0
20260509160331 74 242 4.0 10.0 0.00 0.00 0.00 48 1012.1
20260509160326 74 285 4.0 10.0 0.00 0.00 0.00 48 1012.1
20260509160323 73 305 3.0 11.0 0.00 0.00 0.00 51 1012.1
20260509160320 73 306 4.0 11.0 0.00 0.00 0.00 51 1012.2
20260509160316 72 241 4.0 12.0 0.00 0.00 0.00 49 1012.2
20260509160312 71 258 4.0 12.0 0.00 0.00 0.00 53 1012.1
20260509160309 70 230 3.0 9.0 0.00 0.00 0.00 55 1012.0
20260509160303 69 252 4.0 11.0 0.00 0.00 0.00 56 1012.2
20260509160257 69 194 4.0 11.0 0.00 0.00 0.00 55 1012.2
20260509160252 67 212 5.0 9.0 0.00 0.00 0.00 57 1012.5
20260509160247 67 178 5.0 8.0 0.00 0.00 0.00 58 1012.5
20260509160241 66 200 4.0 7.0 0.00 0.00 0.00 59 1012.6
20260509160234 65 182 3.0 6.0 0.00 0.00 0.00 61 1012.7
20260509160230 65 179 4.0 7.0 0.00 0.00 0.00 61 1013.0
20260509160228 64 189 4.0 9.0 0.00 0.00 0.00 61 1013.0
20260509160225 64 209 5.0 9.0 0.00 0.00 0.00 62 1012.9
20260509160216 63 225 5.0 9.0 0.00 0.00 0.00 62 1012.9
20260509160211 62 240 3.0 7.0 0.00 0.00 0.00 63 1013.0
20260509160208 61 240 2.0 6.0 0.00 0.00 0.00 67 1013.0
20260509160203 60 208 4.0 6.0 0.00 0.00 0.00 66 1013.0
20260509160159 60 213 3.0 7.0 0.00 0.00 0.00 67 1013.0
20260509160153 59 252 4.0 7.0 0.00 0.00 0.00 67 1013.1
20260509160150 59 206 5.0 8.0 0.00 0.00 0.00 68 1012.9
20260509160147 58 228 3.0 9.0 0.00 0.00 0.00 69 1012.8
20260509160143 58 223 3.0 9.0 0.00 0.00 0.00 70 1012.7
20260509160138 58 205 5.0 7.0 0.00 0.00 0.00 70 1012.7
20260509160133 57 210 4.0 7.0 0.00 0.00 0.00 70 1012.5
20260509160131 57 203 3.0 9.0 0.00 0.00 0.00 70 1012.5
20260509160125 57 191 4.0 9.0 0.00 0.00 0.00 70 1012.5
20260509160123 57 215 3.0 9.0 0.00 0.00 0.00 71 1012.5
20260509160120 57 220 4.0 9.0 0.00 0.00 0.00 71 1012.3
20260509160114 57 210 3.0 6.0 0.00 0.00 0.00 71 1012.2
20260509160110 56 213 2.0 6.0 0.00 0.00 0.00 71 1012.1
20260509160101 56 194 3.0 9.0 0.00 0.00 0.00 71 1011.8
20260509160058 56 186 2.0 6.0 0.00 0.00 0.00 71 1011.7
20260509160055 56 187 2.0 5.0 0.00 0.00 0.00 71 1011.6
20260509160052 57 218 3.0 7.0 0.00 0.00 0.00 70 1011.5
20260509160045 57 211 2.0 6.0 0.00 0.00 0.00 69 1011.5
20260509160035 57 224 5.0 9.0 0.00 0.00 0.00 69 1011.4
20260509160031 57 224 3.0 8.0 0.00 0.00 0.00 70 1011.4
20260509160028 57 235 3.0 6.0 0.00 0.00 0.00 69 1011.4
20260509160008 57 213 3.0 7.0 0.00 0.00 0.00 69 1011.4
20260509160002 57 207 4.0 7.0 0.00 0.00 0.00 69 1011.4
20260509155957 57 229 3.0 10.0 0.00 0.00 0.00 69 1011.3
20260509155950 57 205 3.0 6.0 0.00 0.00 0.00 69 1011.3
20260509155945 57 234 4.0 8.0 0.00 0.00 0.00 69 1011.3
20260509155943 57 229 4.0 7.0 0.00 0.00 0.00 69 1011.2
20260509155934 58 205 3.0 7.0 0.00 0.00 0.00 69 1011.2
20260509155932 58 200 3.0 6.0 0.00 0.00 0.00 69 1011.2
20260509155926 58 224 3.0 7.0 0.00 0.00 0.00 69 1011.3
20260509155923 58 215 3.0 7.0 0.00 0.00 0.00 68 1011.3
20260509155920 58 198 2.0 4.0 0.00 0.00 0.00 67 1011.1
20260509155914 58 211 2.0 5.0 0.00 0.00 0.00 67 1011.2
20260509155911 59 197 3.0 6.0 0.00 0.00 0.00 67 1011.0
20260509155903 59 187 3.0 7.0 0.00 0.00 0.00 67 1011.0
20260509155901 59 187 2.0 7.0 0.00 0.00 0.00 67 1011.0
20260509155856 59 220 3.0 6.0 0.00 0.00 0.00 67 1011.0
20260509155853 59 211 3.0 4.0 0.00 0.00 0.00 67 1011.0
20260509155848 59 217 2.0 5.0 0.00 0.00 0.00 67 1011.0
20260509155843 59 207 3.0 5.0 0.00 0.00 0.00 67 1011.0
20260509155840 59 213 1.0 4.0 0.00 0.00 0.00 66 1010.9
20260509155837 59 200 1.0 4.0 0.00 0.00 0.00 66 1011.0
20260509155833 59 232 1.0 4.0 0.00 0.00 0.00 66 1011.0
20260509155830 59 221 2.0 4.0 0.00 0.00 0.00 66 1011.0
20260509155827 59 202 2.0 5.0 0.00 0.00 0.00 66 1011.0
20260509155824 59 205 2.0 8.0 0.00 0.00 0.00 66 1011.0
20260509155819 59 213 3.0 8.0 0.00 0.00 0.00 66 1011.0
20260509155816 59 205 3.0 6.0 0.00 0.00 0.00 66 1011.0
20260509155812 59 212 4.0 6.0 0.00 0.00 0.00 65 1011.0
20260509155808 60 196 2.0 3.0 0.00 0.00 0.00 65 1011.1
20260509155806 60 144 1.0 2.0 0.00 0.00 0.00 63 1011.1
20260509155758 61 147 1.0 2.0 0.00 0.00 0.00 63 1011.1
20260509155753 61 164 0.0 5.0 0.00 0.00 0.00 63 1011.1
20260509155748 62 190 1.0 4.0 0.00 0.00 0.00 61 1011.2
20260509155744 62 202 2.0 6.0 0.00 0.00 0.00 61 1011.1
20260509155735 62 218 4.0 8.0 0.00 0.00 0.00 60 1011.2
20260509155733 62 188 4.0 8.0 0.00 0.00 0.00 60 1011.2
20260509155729 62 209 3.0 7.0 0.00 0.00 0.00 60 1011.2
20260509155723 62 197 4.0 8.0 0.00 0.00 0.00 60 1011.2
20260509155718 62 218 4.0 8.0 0.00 0.00 0.00 60 1011.2
20260509155715 62 188 3.0 8.0 0.00 0.00 0.00 59 1011.2
20260509155709 62 224 5.0 8.0 0.00 0.00 0.00 59 1011.3
20260509155706 63 211 3.0 9.0 0.00 0.00 0.00 58 1011.2
20260509155702 63 214 3.0 9.0 0.00 0.00 0.00 58 1011.2
20260509155656 63 215 4.0 6.0 0.00 0.00 0.00 58 1011.3
20260509155652 63 212 3.0 9.0 0.00 0.00 0.00 57 1011.2
20260509155648 63 200 3.0 9.0 0.00 0.00 0.00 57 1011.1
20260509155641 63 185 4.0 8.0 0.00 0.00 0.00 57 1011.1
20260509155635 63 213 4.0 8.0 0.00 0.00 0.00 58 1011.1
20260509155630 62 216 5.0 8.0 0.00 0.00 0.00 57 1011.0
20260509155626 62 207 3.0 9.0 0.00 0.00 0.00 57 1011.1
20260509155620 62 198 4.0 9.0 0.00 0.00 0.00 57 1011.1
20260509155618 62 230 5.0 8.0 0.00 0.00 0.00 57 1011.0
20260509155614 62 210 4.0 8.0 0.00 0.00 0.00 57 1011.0
20260509155611 61 196 3.0 8.0 0.00 0.00 0.00 57 1010.9
20260509155607 61 195 4.0 6.0 0.00 0.00 0.00 57 1010.8
20260509155604 61 215 3.0 6.0 0.00 0.00 0.00 56 1010.9
20260509155559 62 219 4.0 7.0 0.00 0.00 0.00 56 1011.0
20260509155554 62 192 4.0 7.0 0.00 0.00 0.00 56 1011.0
20260509155551 62 187 3.0 10.0 0.00 0.00 0.00 56 1010.8
20260509155547 62 190 5.0 10.0 0.00 0.00 0.00 56 1010.8
20260509155543 61 215 3.0 9.0 0.00 0.00 0.00 56 1010.8
20260509155540 61 207 4.0 9.0 0.00 0.00 0.00 56 1010.9
20260509155533 61 171 2.0 5.0 0.00 0.00 0.00 56 1011.0
20260509155526 61 217 1.0 6.0 0.00 0.00 0.00 57 1011.0